[[{"header":{"parameterUnit":"m.s-1","parameterCategory":2,"la1":30.2991,"la2":30.254,"lo1":-89.0895,"lo2":-89.0444,"dy":0.0017,"dx":0.0017,"nx":28,"ny":28,"refTime":"2025-05-29T21:00:00:Z","depth":"0","parameterNumber":2,"parameterNumberName":"U-component_of_CURRENTS"},"data":[0,0,0,0,0,0,0,0,0,0,0,0,0,0,0,0,0,0,0,0,0,0,0,0,0,0,0,0,0,0,0,0,0,0,0,0,0,0,0,0,0,0,0,0,0,0,0,0,0,0,0,0,0,0,0,0,0,0,0.3903,0.3904,0,0.4015,0.4016,0.4018,0.4066,0.4066,0.4065,0.4065,0.4087,0.4089,0.409,0,0,0,0,0,0,0,0,0,0,0,0,0,0.3803,0.3804,0.3903,0.3904,0.3905,0.4015,0.4016,0.4018,0.4067,0.4066,0.4065,0.4065,0.4087,0.4088,0.409,0,0,0,0,0,0,0,0,0,0,0,0,0,0.3877,0.3805,0.3902,0.3939,0.3943,0.4014,0.4017,0.4019,0.4067,0.4066,0.4065,0.4064,0.4087,0.4088,0.409,0.4117,0,0,0.4095,0.4096,0,0,0,0,0,0,0,0,0.3873,0.3881,0.3933,0.3936,0.3941,0.4022,0.399,0.4046,0.4067,0.4024,0.4065,0.4064,0.4055,0.406,0.409,0.4118,0.4119,0.4095,0.4096,0.4097,0.4097,0,0,0,0,0,0,0,0.3868,0.3877,0.3951,0.3934,0.3939,0.3974,0.3984,0.4002,0.4044,0.4028,0.403,0.4037,0.4057,0.4088,0.409,0.4119,0.4095,0.4097,0.4098,0.4098,0.4194,0.4195,0,0,0,0,0,0,0.3843,0.3872,0.3948,0.3954,0.39,0.3976,0.3987,0.4,0.4046,0.4052,0.4037,0.4038,0.4086,0.4088,0.4091,0.4133,0.4097,0.4099,0.41,0.4192,0.4194,0.4196,0,0,0,0,0,0,0.3841,0.3849,0.3943,0.3912,0.3926,0.3978,0.3993,0.4003,0.404,0.4054,0.4059,0.4063,0.4085,0.4088,0.4126,0.4134,0.4099,0.4101,0.419,0.4193,0.4195,0.4212,0,0,0,0,0,0,0.3837,0.3848,0.3861,0.391,0.3926,0.3997,0.3994,0.4006,0.4042,0.4045,0.4078,0.4079,0.4085,0.4124,0.4128,0.4135,0.4102,0.4188,0.4191,0.4194,0.421,0.4215,0.4219,0,0,0,0,0,0.3834,0.3857,0.3861,0.387,0.3939,0.3998,0.4012,0.4048,0.4044,0.4075,0.4096,0.4078,0.4144,0.4127,0.4131,0.4139,0.4187,0.4191,0.4194,0.4208,0.4214,0.4219,0,0,0,0,0,0,0.3824,0.3865,0.387,0.3905,0.3949,0.4005,0.4032,0.4053,0.4098,0.4097,0.4104,0.4109,0.4141,0.4147,0.4128,0.4178,0.416,0.4164,0.4169,0.4175,0.418,0.4192,0.4104,0,0,0,0,0,0.3824,0.3852,0.3894,0.3924,0.394,0.3986,0.4015,0.4043,0.4081,0.4102,0.4118,0.4137,0.4161,0.4172,0.4194,0.4226,0.4275,0.4234,0.4239,0.4243,0.4258,0.4324,0.4336,0.4207,0.4207,0.4207,0,0,0.3825,0.3854,0.3868,0.3924,0.3955,0.3999,0.4003,0.4053,0.4092,0.4094,0.4143,0.4155,0.4175,0.4211,0.4225,0.4215,0.4317,0.4247,0.425,0.4263,0.4329,0.4341,0.4352,0.4209,0.4209,0.4208,0,0,0.3849,0.3867,0.3898,0.3937,0.3988,0.4018,0.403,0.4086,0.4111,0.4154,0.4168,0.4193,0.4219,0.4249,0.4261,0.4308,0.4339,0.4306,0.4339,0.4402,0.4413,0.4424,0.4552,0.4573,0.4308,0.4308,0.4308,0,0.385,0.3898,0.392,0.3963,0.3996,0.4022,0.4069,0.4104,0.4168,0.4189,0.4166,0.4234,0.4237,0.4302,0.4315,0.4316,0.4383,0.431,0.4408,0.4419,0.4429,0.4557,0.4581,0.4309,0.4309,0.4309,0.4309,0,0.3905,0.3941,0.3962,0.402,0.4059,0.4106,0.4145,0.4182,0.419,0.4218,0.4268,0.4287,0.4332,0.4327,0.4329,0.4409,0.4448,0.4405,0.439,0.4443,0.4576,0.46,0.4311,0.4311,0.431,0.431,0,0,0.3924,0.3986,0.3997,0.4026,0.4094,0.4132,0.4185,0.4245,0.4283,0.4308,0.4361,0.4385,0.4396,0.4415,0.4429,0.447,0.4599,0.447,0.4472,0.4594,0.4806,0.4799,0.4825,0.4571,0.4574,0.4577,0.4888,0,0.3965,0.4035,0.4065,0.4137,0.4173,0.421,0.4257,0.431,0.4338,0.4393,0.441,0.4459,0.4433,0.4459,0.4501,0.4561,0.4656,0.4523,0.474,0.4749,0.473,0.4848,0.4575,0.4824,0.4911,0.4915,0.4918,0,0.4025,0.4061,0.4125,0.4188,0.4207,0.425,0.4327,0.4377,0.4447,0.4467,0.4519,0.4544,0.463,0.4578,0.475,0.467,0.4761,0.4803,0.4815,0.4815,0.4784,0.4777,0.4864,0.473,0.4955,0.4952,0.495,0,0.4035,0.4111,0.4156,0.4183,0.4252,0.4285,0.4325,0.4396,0.4442,0.453,0.4573,0.4663,0.4735,0.4816,0.4921,0.4848,0.5118,0.5024,0.5133,0.5137,0.495,0.4931,0.4921,0.5186,0.5186,0.5185,0.5184,0,0.4078,0.4116,0.416,0.4187,0.4248,0.4291,0.436,0.4412,0.449,0.4547,0.462,0.4705,0.4793,0.4944,0.5002,0.5173,0.5207,0.5191,0.5217,0.4956,0.4934,0.4843,0.4787,0.5196,0.5194,0.5192,0.5189,0,0.4083,0.4115,0.4168,0.4229,0.4254,0.4294,0.4373,0.4406,0.4499,0.4586,0.4622,0.4789,0.4969,0.5101,0.5283,0.5309,0.53,0.5506,0.5234,0.522,0.5107,0.5063,0.5014,0.4875,0.5645,0.5647,0.5648,0,0.4082,0.4112,0.4183,0.4196,0.4221,0.4279,0.4306,0.44,0.4437,0.4627,0.4665,0.49,0.5016,0.533,0.5417,0.559,0.5409,0.5462,0.524,0.5113,0.5084,0.4905,0.4776,0.5037,0.5034,0.5031,0.5028,0,0.4075,0.4103,0.4129,0.4169,0.4197,0.4222,0.4271,0.4318,0.4424,0.4512,0.4654,0.4772,0.5086,0.5126,0.5393,0.5446,0.5157,0.5407,0.5305,0.4655,0.4426,0.4299,0.4886,0.5001,0.5004,0.5006,0.5007,0.5008,0.4043,0.4065,0.4095,0.4117,0.4135,0.4126,0.4098,0.4165,0.4228,0.429,0.4521,0.458,0.4779,0.508,0.5141,0.5064,0.5072,0.4872,0.4863,0.4721,0.4451,0.5036,0.5143,0.5146,0.5149,0.5151,0.5154,0,0.3986,0.4014,0.4033,0.4031,0.3973,0.4016,0.4024,0.3949,0.3954,0.4078,0.4161,0.4257,0.4348,0.4497,0.4599,0.4503,0.4292,0.4393,0.4012,0.3936,0.4481,0.431,0.4199,0.4199,0.4199,0.4199,0.4199,0.4199,0.3953,0.395,0.3963,0.3855,0.3821,0.3667,0.362,0.3565,0.3585,0.3557,0.3555,0.3679,0.4002,0.421,0.4141,0.4053,0.3755,0.3616,0.3686,0.3997,0.4036,0.4073,0.3896,0.37,0.3699,0.2889,0.2883,0.2879]},{"header":{"parameterUnit":"m.s-1","parameterCategory":2,"la1":30.2991,"la2":30.254,"lo1":-89.0895,"lo2":-89.0444,"dy":0.0017,"dx":0.0017,"nx":28,"ny":28,"refTime":"2025-05-29T21:00:00:Z","depth":"0","parameterNumber":3,"parameterNumberName":"V-component_of_CURRENTS"},"data":[0,0,0,0,0,0,0,0,0,0,0,0,0,0,0,0,0,0,0,0,0,0,0,0,0,0,0,0,0,0,0,0,0,0,0,0,0,0,0,0,0,0,0,0,0,0,0,0,0,0,0,0,0,0,0,0,0,0,-0.13,-0.1302,0,-0.1451,-0.1454,-0.1456,-0.1538,-0.1537,-0.1537,-0.1537,-0.1692,-0.1696,-0.17,0,0,0,0,0,0,0,0,0,0,0,0,0,-0.1159,-0.1161,-0.13,-0.1302,-0.1303,-0.1451,-0.1454,-0.1456,-0.1538,-0.1537,-0.1537,-0.1537,-0.169,-0.1695,-0.1701,0,0,0,0,0,0,0,0,0,0,0,0,0,-0.126,-0.1162,-0.13,-0.1359,-0.1366,-0.1451,-0.1454,-0.1457,-0.1538,-0.1537,-0.1537,-0.1537,-0.1689,-0.1695,-0.1701,-0.1745,0,0,-0.1721,-0.1724,0,0,0,0,0,0,0,0,-0.1254,-0.1265,-0.1349,-0.1355,-0.1362,-0.1472,-0.1461,-0.1552,-0.1538,-0.1476,-0.1537,-0.1537,-0.1616,-0.1629,-0.1663,-0.1753,-0.1759,-0.1721,-0.1725,-0.1728,-0.173,0,0,0,0,0,0,0,-0.1247,-0.126,-0.1364,-0.135,-0.1359,-0.1404,-0.1418,-0.1479,-0.1549,-0.1482,-0.1487,-0.1498,-0.1621,-0.1657,-0.1667,-0.1762,-0.1721,-0.1727,-0.1731,-0.1733,-0.189,-0.1891,0,0,0,0,0,0,-0.1217,-0.1253,-0.1359,-0.1368,-0.1302,-0.1406,-0.1422,-0.144,-0.1548,-0.1563,-0.1498,-0.1501,-0.1646,-0.166,-0.1673,-0.1694,-0.1728,-0.1734,-0.1738,-0.189,-0.189,-0.1891,0,0,0,0,0,0,-0.1214,-0.1225,-0.1353,-0.131,-0.1329,-0.1408,-0.1429,-0.1443,-0.1482,-0.156,-0.1576,-0.1521,-0.1646,-0.1664,-0.1731,-0.1701,-0.1737,-0.1743,-0.189,-0.189,-0.1891,-0.1759,0,0,0,0,0,0,-0.1209,-0.1224,-0.1234,-0.1309,-0.133,-0.1405,-0.1429,-0.1446,-0.1487,-0.1493,-0.1585,-0.1599,-0.1647,-0.1721,-0.1737,-0.1711,-0.1748,-0.1889,-0.189,-0.189,-0.1763,-0.1755,-0.1748,0,0,0,0,0,-0.1204,-0.1217,-0.1234,-0.1247,-0.134,-0.1405,-0.1422,-0.1479,-0.1488,-0.1512,-0.1569,-0.1596,-0.1736,-0.1727,-0.1746,-0.172,-0.1889,-0.189,-0.189,-0.1766,-0.1757,-0.1748,0,0,0,0,0,0,-0.116,-0.1229,-0.1249,-0.1282,-0.1337,-0.1418,-0.1441,-0.1477,-0.1543,-0.1541,-0.1613,-0.1632,-0.1679,-0.173,-0.1718,-0.1771,-0.1813,-0.1817,-0.1712,-0.1703,-0.1696,-0.1624,-0.1753,0,0,0,0,0,-0.1153,-0.1184,-0.1251,-0.1277,-0.1298,-0.1368,-0.1401,-0.1437,-0.1499,-0.1529,-0.1586,-0.1646,-0.1698,-0.1724,-0.1788,-0.1821,-0.1802,-0.1817,-0.1809,-0.1802,-0.176,-0.1728,-0.1712,-0.1893,-0.1893,-0.1893,0,0,-0.114,-0.1183,-0.1199,-0.127,-0.1314,-0.1331,-0.1389,-0.1431,-0.1436,-0.1534,-0.1562,-0.1631,-0.1707,-0.1742,-0.1765,-0.1777,-0.1738,-0.1803,-0.1796,-0.1757,-0.1727,-0.1708,-0.1692,-0.1894,-0.1894,-0.1894,0,0,-0.1112,-0.1167,-0.117,-0.1211,-0.1268,-0.1312,-0.1318,-0.1391,-0.1416,-0.1462,-0.1521,-0.1559,-0.166,-0.1683,-0.1712,-0.1704,-0.1709,-0.1743,-0.1634,-0.1604,-0.1587,-0.1572,-0.1494,-0.1473,-0.1728,-0.1728,-0.1727,0,-0.1086,-0.1097,-0.1182,-0.1188,-0.1196,-0.1291,-0.1272,-0.1324,-0.1407,-0.1398,-0.1452,-0.1536,-0.1612,-0.1606,-0.1614,-0.1676,-0.1655,-0.1654,-0.1586,-0.1572,-0.1558,-0.1482,-0.146,-0.1721,-0.1722,-0.1723,-0.1723,0,-0.1052,-0.1057,-0.1062,-0.1092,-0.1124,-0.1131,-0.1193,-0.1218,-0.1256,-0.1287,-0.1302,-0.1402,-0.1431,-0.1477,-0.1549,-0.1496,-0.1508,-0.1583,-0.159,-0.153,-0.1456,-0.1435,-0.1712,-0.1715,-0.1717,-0.1718,0,0,-0.0973,-0.1022,-0.1015,-0.0989,-0.1061,-0.1067,-0.1078,-0.1085,-0.104,-0.1133,-0.106,-0.1181,-0.1218,-0.1253,-0.1339,-0.1329,-0.1231,-0.1412,-0.1413,-0.1296,-0.1122,-0.1115,-0.1092,-0.13,-0.1297,-0.1294,-0.1095,0,-0.0899,-0.086,-0.0916,-0.086,-0.0833,-0.0907,-0.0892,-0.0916,-0.0946,-0.0913,-0.0987,-0.0981,-0.1138,-0.1134,-0.1152,-0.123,-0.1177,-0.1274,-0.1229,-0.1225,-0.1197,-0.1069,-0.1079,-0.0902,-0.1075,-0.1072,-0.1069,0,-0.0815,-0.0799,-0.0726,-0.0694,-0.0685,-0.0669,-0.0621,-0.0624,-0.0629,-0.0642,-0.0656,-0.0728,-0.074,-0.0873,-0.0909,-0.0971,-0.1011,-0.1064,-0.1059,-0.1076,-0.118,-0.1002,-0.0859,-0.109,-0.1038,-0.1041,-0.1043,0,-0.0667,-0.0646,-0.0568,-0.0566,-0.0567,-0.052,-0.0514,-0.0518,-0.0473,-0.0449,-0.0392,-0.0459,-0.0438,-0.0542,-0.0693,-0.0787,-0.0696,-0.0838,-0.0838,-0.0837,-0.0843,-0.0849,-0.0884,-0.078,-0.078,-0.0781,-0.0781,0,-0.0543,-0.0471,-0.0483,-0.0436,-0.0319,-0.0368,-0.0241,-0.025,-0.0205,-0.0096,-0.0227,-0.0131,-0.0357,-0.0371,-0.0546,-0.0604,-0.057,-0.0751,-0.0771,-0.08,-0.0803,-0.101,-0.1146,-0.0773,-0.0775,-0.0776,-0.0778,0,-0.0377,-0.0394,-0.0295,-0.0265,-0.0244,-0.0152,-0.0081,0.0003,0.0024,0.0174,0.0201,0.0164,0.0143,-0.0055,-0.0167,-0.0361,-0.0557,-0.047,-0.0465,-0.0489,-0.0774,-0.0902,-0.0896,-0.097,-0.044,-0.0438,-0.0437,0,-0.0281,-0.022,-0.0155,-0.0096,-0.0071,0.0035,0.0104,0.0125,0.022,0.0368,0.0472,0.0509,0.0561,0.0401,0.0078,-0.0134,-0.0391,-0.0296,-0.0495,-0.072,-0.0879,-0.0998,-0.1071,-0.0433,-0.0431,-0.043,-0.043,0,-0.0108,-0.0094,-0.0033,0.0079,0.0167,0.0278,0.039,0.0506,0.0572,0.0727,0.0937,0.1007,0.0853,0.0638,0.0311,0.0092,-0.0473,-0.0281,-0.0522,-0.0848,-0.0967,-0.1072,-0.0612,-0.042,-0.0421,-0.0422,-0.0423,-0.0423,0.0012,0.008,0.0134,0.0251,0.0356,0.0511,0.0654,0.0793,0.1007,0.1265,0.1291,0.1452,0.1072,0.062,0.0306,-0.0332,-0.0349,-0.0578,-0.0693,-0.0776,-0.0919,-0.0406,-0.0262,-0.0262,-0.0262,-0.0262,-0.0262,0,0.0129,0.018,0.0293,0.0431,0.0585,0.0607,0.0828,0.0992,0.1292,0.1516,0.1718,0.1624,0.1152,0.0591,-0.0227,-0.0681,-0.0899,-0.0951,-0.1161,-0.1203,-0.074,-0.0821,-0.0784,-0.0783,-0.0783,-0.0783,-0.0783,-0.0783,0.0188,0.0291,0.0334,0.059,0.0715,0.0945,0.1097,0.1343,0.1539,0.1853,0.1963,0.2002,0.1566,0.0106,-0.0913,-0.1163,-0.1513,-0.1566,-0.1706,-0.1478,-0.1456,-0.1434,-0.1545,-0.166,-0.1661,-0.2151,-0.2156,-0.216]}],[{"header":{"parameterUnit":"m.s-1","parameterCategory":2,"la1":30.2991,"la2":30.254,"lo1":-89.0895,"lo2":-89.0444,"dy":0.0017,"dx":0.0017,"nx":28,"ny":28,"refTime":"2025-05-29T21:00:00:Z","depth":"2","parameterNumber":2,"parameterNumberName":"U-component_of_CURRENTS"},"data":[0,0,0,0,0,0,0,0,0,0,0,0,0,0,0,0,0,0,0,0,0,0,0,0,0,0,0,0,0,0,0,0,0,0,0,0,0,0,0,0,0,0,0,0,0,0,0,0,0,0,0,0,0,0,0,0,0,0,0.2353,0.2354,0,0.2378,0.2377,0.2377,0.2366,0.2366,0.2366,0.2366,0.2347,0.2346,0.2346,0,0,0,0,0,0,0,0,0,0,0,0,0,0.228,0.2281,0.2353,0.2354,0.2355,0.2378,0.2377,0.2377,0.2366,0.2366,0.2366,0.2366,0.2347,0.2346,0.2346,0,0,0,0,0,0,0,0,0,0,0,0,0,0.2304,0.2281,0.2353,0.2356,0.2356,0.2378,0.2377,0.2377,0.2366,0.2366,0.2366,0.2365,0.2347,0.2346,0.2346,0.2348,0,0,0.2344,0.2344,0,0,0,0,0,0,0,0,0.2303,0.2306,0.2354,0.2355,0.2356,0.2373,0.2345,0.2367,0.2366,0.2357,0.2366,0.2365,0.2355,0.2354,0.2352,0.2347,0.2346,0.2344,0.2344,0.2344,0.2344,0,0,0,0,0,0,0,0.2301,0.2305,0.2358,0.2355,0.2357,0.235,0.2352,0.2349,0.2353,0.2358,0.2359,0.2369,0.2354,0.2353,0.2352,0.2346,0.2344,0.2344,0.2344,0.2343,0.2407,0.2409,0,0,0,0,0,0,0.2309,0.2304,0.2357,0.2359,0.2334,0.2352,0.2355,0.2364,0.2354,0.2354,0.2369,0.2369,0.2354,0.2353,0.2351,0.2394,0.2344,0.2343,0.2343,0.2405,0.2408,0.241,0,0,0,0,0,0,0.2308,0.2314,0.2357,0.2336,0.2341,0.2354,0.2364,0.2365,0.2375,0.2363,0.2361,0.2381,0.2354,0.2352,0.2361,0.2392,0.2343,0.2343,0.2403,0.2406,0.2409,0.2454,0,0,0,0,0,0,0.2305,0.2313,0.2326,0.2336,0.2343,0.2373,0.2365,0.2365,0.2384,0.2383,0.2373,0.237,0.2353,0.2362,0.2361,0.239,0.2342,0.24,0.2404,0.2408,0.245,0.2458,0.2465,0,0,0,0,0,0.2303,0.2316,0.2326,0.2334,0.236,0.2374,0.2375,0.238,0.2385,0.2389,0.2389,0.2371,0.2386,0.2363,0.2361,0.2391,0.2398,0.2403,0.2407,0.2447,0.2457,0.2465,0,0,0,0,0,0,0.2289,0.2317,0.2328,0.235,0.2366,0.2373,0.2383,0.2391,0.2395,0.2399,0.2384,0.2381,0.2405,0.2396,0.2371,0.2425,0.2395,0.2399,0.2426,0.2435,0.2442,0.2465,0.2342,0,0,0,0,0,0.2296,0.2314,0.2337,0.2356,0.2365,0.2379,0.2389,0.2396,0.2402,0.2404,0.2402,0.2409,0.2421,0.2425,0.2428,0.2449,0.2531,0.2474,0.2482,0.2488,0.2509,0.2642,0.2664,0.2425,0.2425,0.2424,0,0,0.2298,0.2316,0.2328,0.2355,0.2367,0.2392,0.2383,0.2403,0.243,0.2402,0.2431,0.243,0.2434,0.2459,0.247,0.2454,0.2614,0.2494,0.2499,0.2516,0.2649,0.2672,0.2693,0.2428,0.2427,0.2427,0,0,0.2314,0.2327,0.2352,0.2367,0.2396,0.2405,0.2417,0.2435,0.2447,0.247,0.2471,0.2493,0.2497,0.2517,0.2525,0.2581,0.2648,0.2585,0.2639,0.2768,0.2789,0.2808,0.3007,0.3043,0.2589,0.2589,0.2589,0,0.2322,0.236,0.236,0.2388,0.2416,0.2417,0.2456,0.2464,0.2485,0.2521,0.2485,0.2554,0.253,0.2607,0.261,0.2599,0.2711,0.2597,0.278,0.28,0.2819,0.3017,0.3057,0.2592,0.2592,0.2591,0.2591,0,0.236,0.2394,0.2407,0.245,0.2468,0.2501,0.2519,0.2546,0.2559,0.2583,0.2653,0.2635,0.2697,0.2678,0.2645,0.2773,0.2828,0.2773,0.2756,0.2846,0.305,0.3091,0.2596,0.2595,0.2594,0.2593,0,0,0.2394,0.2432,0.2444,0.2488,0.2514,0.2546,0.2583,0.2648,0.2722,0.2717,0.283,0.2807,0.283,0.2844,0.2831,0.2896,0.3111,0.2887,0.2893,0.3088,0.3481,0.331,0.3339,0.3094,0.31,0.3105,0.3592,0,0.2443,0.2518,0.2516,0.2598,0.2648,0.2658,0.2709,0.2761,0.2798,0.2896,0.2906,0.2998,0.2889,0.2949,0.2994,0.3088,0.3211,0.299,0.3362,0.3375,0.3212,0.3375,0.3028,0.3412,0.3632,0.3639,0.3644,0,0.2506,0.2552,0.2652,0.2721,0.2745,0.2803,0.2923,0.296,0.3064,0.3102,0.3179,0.3206,0.3329,0.3207,0.3453,0.3328,0.3421,0.3469,0.3489,0.3336,0.3276,0.3345,0.3478,0.3712,0.3707,0.3702,0.3697,0,0.2608,0.2652,0.2751,0.2776,0.2851,0.2927,0.2972,0.3062,0.3144,0.3283,0.339,0.3492,0.3625,0.3712,0.3772,0.367,0.4045,0.3934,0.3896,0.3891,0.3668,0.3628,0.4143,0.4142,0.4141,0.414,0.4138,0,0.27,0.279,0.282,0.291,0.3027,0.3037,0.321,0.325,0.338,0.3503,0.3541,0.3687,0.3753,0.3928,0.3939,0.4064,0.4219,0.3968,0.4001,0.3676,0.3634,0.3911,0.3877,0.4158,0.4154,0.415,0.4147,0,0.283,0.2868,0.2977,0.3061,0.3111,0.3199,0.3358,0.3432,0.3573,0.375,0.3823,0.3969,0.4157,0.4219,0.4418,0.432,0.4421,0.4428,0.4063,0.4036,0.4165,0.4128,0.4489,0.4487,0.4486,0.4484,0.4483,0,0.2908,0.2972,0.3093,0.313,0.3193,0.333,0.3402,0.3539,0.3605,0.3898,0.3962,0.4233,0.4275,0.4519,0.4439,0.4506,0.4531,0.4223,0.3886,0.4203,0.4201,0.4167,0.4134,0.3692,0.3684,0.3678,0.3673,0,0.2952,0.3,0.3052,0.3158,0.3248,0.3366,0.3484,0.3581,0.372,0.3858,0.3986,0.4067,0.4282,0.4123,0.4216,0.4182,0.4148,0.4092,0.4616,0.3574,0.3465,0.3456,0.3449,0.3618,0.3623,0.3627,0.363,0.3632,0.2919,0.2918,0.2943,0.3058,0.3183,0.3284,0.3321,0.3397,0.3494,0.3555,0.3775,0.3754,0.3831,0.3709,0.3668,0.366,0.3893,0.369,0.3705,0.3728,0.3464,0.3347,0.344,0.3444,0.3448,0.3451,0.3454,0,0.2729,0.2743,0.2798,0.2901,0.2998,0.3146,0.3246,0.3183,0.3164,0.327,0.3274,0.3018,0.2973,0.3115,0.2997,0.3,0.2937,0.2898,0.2776,0.2835,0.2886,0.2571,0.2316,0.2313,0.2309,0.2306,0,0,0.2602,0.2534,0.2571,0.2645,0.2778,0.2807,0.283,0.2742,0.2744,0.2605,0.2571,0.2721,0.2943,0.253,0.2527,0.2408,0.2587,0.2323,0.3239,0.315,0.3196,0.3357,0.2941,0,0,0,0,0]},{"header":{"parameterUnit":"m.s-1","parameterCategory":2,"la1":30.2991,"la2":30.254,"lo1":-89.0895,"lo2":-89.0444,"dy":0.0017,"dx":0.0017,"nx":28,"ny":28,"refTime":"2025-05-29T21:00:00:Z","depth":"2","parameterNumber":3,"parameterNumberName":"V-component_of_CURRENTS"},"data":[0,0,0,0,0,0,0,0,0,0,0,0,0,0,0,0,0,0,0,0,0,0,0,0,0,0,0,0,0,0,0,0,0,0,0,0,0,0,0,0,0,0,0,0,0,0,0,0,0,0,0,0,0,0,0,0,0,0,0.0238,0.0237,0,0.0128,0.0126,0.0125,0.0006,0.0004,0.0003,0.0001,-0.016,-0.0163,-0.0166,0,0,0,0,0,0,0,0,0,0,0,0,0,0.0271,0.0272,0.0239,0.0237,0.0236,0.0128,0.0126,0.0125,0.0006,0.0004,0.0002,0.0001,-0.016,-0.0163,-0.0166,0,0,0,0,0,0,0,0,0,0,0,0,0,0.0218,0.0272,0.0239,0.0164,0.0156,0.0128,0.0126,0.0124,0.0007,0.0004,0.0002,-0.0,-0.0158,-0.0163,-0.0167,-0.0143,0,0,-0.0179,-0.0181,0,0,0,0,0,0,0,0,0.0221,0.0217,0.0177,0.0169,0.0161,0.0079,0.0078,0.0032,0.0007,0.0063,0.0001,-0.0002,-0.0083,-0.0094,-0.0109,-0.0151,-0.0158,-0.018,-0.0182,-0.0184,-0.0185,0,0,0,0,0,0,0,0.0225,0.0221,0.0194,0.0175,0.0166,0.011,0.01,0.0069,0.0004,0.0058,0.0049,0.0039,-0.0088,-0.0105,-0.0114,-0.016,-0.018,-0.0183,-0.0186,-0.0188,-0.025,-0.0249,0,0,0,0,0,0,0.0247,0.0225,0.0198,0.0191,0.0186,0.0112,0.0101,0.0107,0.0005,-0.0012,0.0041,0.0034,-0.0096,-0.0109,-0.012,-0.0158,-0.0184,-0.0188,-0.019,-0.0251,-0.025,-0.0249,0,0,0,0,0,0,0.0249,0.0247,0.0202,0.0204,0.0195,0.0114,0.0122,0.0106,0.0059,-0.0007,-0.0027,0.0006,-0.0099,-0.0114,-0.0159,-0.0163,-0.019,-0.0194,-0.0252,-0.0251,-0.025,-0.0196,0,0,0,0,0,0,0.025,0.0248,0.0252,0.0207,0.0195,0.0187,0.0124,0.0106,0.0058,0.0047,-0.0042,-0.0059,-0.0102,-0.0152,-0.0163,-0.017,-0.0197,-0.0253,-0.0251,-0.025,-0.0199,-0.0194,-0.0189,0,0,0,0,0,0.0252,0.027,0.0253,0.0249,0.0207,0.0188,0.0177,0.011,0.0059,0.0054,-0.0011,-0.0057,-0.015,-0.0154,-0.0168,-0.0176,-0.0254,-0.0252,-0.025,-0.0202,-0.0195,-0.0189,0,0,0,0,0,0,0.0273,0.0259,0.0239,0.0248,0.0221,0.0168,0.0148,0.0105,0.005,0.0022,-0.0047,-0.0065,-0.0107,-0.0139,-0.0142,-0.0186,-0.0209,-0.021,-0.0168,-0.0162,-0.0157,-0.0142,-0.02,0,0,0,0,0,0.0288,0.03,0.0272,0.0274,0.0263,0.0203,0.018,0.0138,0.0088,0.0057,-0.0007,-0.0066,-0.01,-0.0131,-0.0168,-0.019,-0.0216,-0.0201,-0.0196,-0.0191,-0.0186,-0.0217,-0.0214,-0.0243,-0.0243,-0.0243,0,0,0.0291,0.0287,0.0288,0.028,0.0245,0.0244,0.0182,0.0148,0.0136,0.0052,0.0,-0.0053,-0.0101,-0.0129,-0.015,-0.0164,-0.0196,-0.0189,-0.0185,-0.0182,-0.0214,-0.0212,-0.0209,-0.0242,-0.0242,-0.0242,0,0,0.0306,0.0305,0.0314,0.0308,0.0274,0.0253,0.0244,0.0185,0.0146,0.0106,0.0045,-0.0001,-0.0074,-0.0098,-0.0119,-0.01,-0.0165,-0.0127,-0.0095,-0.0125,-0.0123,-0.0122,-0.015,-0.0151,-0.0127,-0.0127,-0.0127,0,0.0295,0.0321,0.031,0.032,0.0316,0.0262,0.0267,0.024,0.0169,0.0144,0.0094,-0.0008,-0.005,-0.0069,-0.0069,-0.0088,-0.0126,-0.0119,-0.0119,-0.0118,-0.0118,-0.0147,-0.0149,-0.0124,-0.0124,-0.0125,-0.0125,0,0.0325,0.0338,0.0342,0.035,0.0352,0.0346,0.0324,0.0299,0.0237,0.0196,0.0137,0.0073,0.001,-0.0006,-0.0039,-0.0054,-0.0088,-0.0108,-0.0136,-0.0112,-0.0144,-0.0147,-0.012,-0.0121,-0.0122,-0.0122,0,0,0.0289,0.035,0.0341,0.0359,0.0367,0.0365,0.0372,0.0356,0.0339,0.0259,0.0227,0.0163,0.0096,0.007,0.0018,-0.0008,-0.0034,-0.0063,-0.0066,-0.0092,-0.0115,-0.0152,-0.016,-0.0073,-0.0073,-0.0073,-0.0138,0,0.0292,0.0337,0.0368,0.0396,0.0414,0.0411,0.0425,0.0407,0.0366,0.0327,0.0256,0.0199,0.0136,0.0087,0.0055,-0.0011,-0.0043,-0.0015,-0.0133,-0.0136,-0.0174,-0.0165,-0.0146,-0.0205,-0.0142,-0.0143,-0.0143,0,0.0293,0.0329,0.0366,0.0428,0.0431,0.0439,0.0449,0.0455,0.0424,0.0384,0.032,0.0254,0.02,0.0139,0.0035,0.0043,-0.0033,-0.0083,-0.0088,-0.0143,-0.018,-0.0219,-0.0214,-0.015,-0.0149,-0.0149,-0.0148,0,0.0256,0.0322,0.0355,0.0373,0.0431,0.0431,0.0447,0.0444,0.0461,0.0402,0.0398,0.0302,0.0262,0.015,0.0048,0.002,-0.0054,-0.0103,-0.0203,-0.0206,-0.0221,-0.0226,-0.0172,-0.0172,-0.0172,-0.0172,-0.0172,0,0.0248,0.0264,0.0333,0.0336,0.0382,0.0412,0.0432,0.0437,0.0449,0.051,0.0405,0.0442,0.0261,0.0204,0.0075,-0.0063,-0.0038,-0.0196,-0.0226,-0.0202,-0.0204,-0.0181,-0.0181,-0.0174,-0.0174,-0.0173,-0.0173,0,0.0208,0.0238,0.029,0.0346,0.0361,0.0386,0.0452,0.0487,0.048,0.0561,0.0548,0.053,0.0455,0.0291,0.014,-0.0009,-0.0147,-0.0196,-0.0156,-0.0181,-0.0295,-0.0292,-0.0354,-0.0356,-0.0357,-0.0359,-0.036,0,0.0204,0.0224,0.0297,0.034,0.0359,0.0402,0.0453,0.048,0.0557,0.0661,0.0731,0.0674,0.0702,0.0439,0.0152,-0.0109,-0.0119,-0.0278,-0.0333,-0.0291,-0.0314,-0.0308,-0.0302,-0.0329,-0.033,-0.033,-0.0331,0,0.0231,0.0243,0.0296,0.0376,0.0426,0.0516,0.0596,0.0676,0.0771,0.0881,0.1059,0.1083,0.0811,0.0558,0.0148,-0.003,-0.0252,-0.0303,-0.0255,-0.0288,-0.0274,-0.0294,-0.0288,-0.0337,-0.0336,-0.0336,-0.0335,-0.0335,0.0268,0.0323,0.0388,0.0471,0.0538,0.0665,0.079,0.092,0.1105,0.1305,0.1304,0.1339,0.097,0.045,0.0115,-0.0277,-0.0276,-0.0418,-0.0413,-0.0408,-0.0396,-0.0385,-0.0467,-0.0467,-0.0467,-0.0467,-0.0467,0,0.0369,0.0415,0.0497,0.0614,0.0737,0.0741,0.0939,0.1095,0.1389,0.1464,0.159,0.1284,0.0953,0.0541,-0.0052,-0.0408,-0.0427,-0.0504,-0.0449,-0.0442,-0.0436,-0.0423,-0.0502,-0.0503,-0.0504,-0.0504,0,0,0.0424,0.0528,0.0574,0.0789,0.0885,0.109,0.1245,0.1445,0.1549,0.1679,0.1661,0.1535,0.1047,0.0618,0.0143,-0.0177,-0.0227,-0.0241,-0.0182,-0.0056,-0.0045,-0.0363,-0.0332,0,0,0,0,0]}],[{"header":{"parameterUnit":"m.s-1","parameterCategory":2,"la1":30.2991,"la2":30.254,"lo1":-89.0895,"lo2":-89.0444,"dy":0.0017,"dx":0.0017,"nx":28,"ny":28,"refTime":"2025-05-29T21:00:00:Z","depth":"4","parameterNumber":2,"parameterNumberName":"U-component_of_CURRENTS"},"data":[0,0,0,0,0,0,0,0,0,0,0,0,0,0,0,0,0,0,0,0,0,0,0,0,0,0,0,0,0,0,0,0,0,0,0,0,0,0,0,0,0,0,0,0,0,0,0,0,0,0,0,0,0,0,0,0,0,0,0.0687,0.0688,0,0.0746,0.0746,0.0747,0.0798,0.0799,0.08,0.08,0.0943,0.0946,0.0949,0,0,0,0,0,0,0,0,0,0,0,0,0,0.0601,0.0602,0.0687,0.0688,0.0689,0.0746,0.0746,0.0747,0.0798,0.0799,0.08,0.0801,0.0942,0.0945,0.0949,0,0,0,0,0,0,0,0,0,0,0,0,0,0.0645,0.0603,0.0687,0.0722,0.0726,0.0745,0.0746,0.0747,0.0798,0.0799,0.08,0.0801,0.094,0.0945,0.095,0.0956,0,0,0.0964,0.0966,0,0,0,0,0,0,0,0,0.0643,0.0648,0.0716,0.072,0.0724,0.0767,0.0768,0.0822,0.0798,0.0769,0.08,0.0802,0.0892,0.0901,0.0906,0.0963,0.0969,0.0964,0.0967,0.0969,0.097,0,0,0,0,0,0,0,0.064,0.0646,0.0709,0.0717,0.0722,0.0729,0.0736,0.0778,0.0824,0.0772,0.0776,0.0784,0.0895,0.0901,0.091,0.0971,0.0964,0.0968,0.0971,0.0973,0.1108,0.1109,0,0,0,0,0,0,0.0636,0.0643,0.0707,0.0711,0.0687,0.073,0.0738,0.0751,0.0822,0.0833,0.0783,0.0787,0.0893,0.0904,0.0915,0.1061,0.0969,0.0973,0.0976,0.1107,0.1108,0.1109,0,0,0,0,0,0,0.0633,0.0641,0.0705,0.0679,0.0688,0.073,0.0744,0.0752,0.0792,0.083,0.0843,0.082,0.0894,0.0909,0.0987,0.1062,0.0975,0.098,0.1106,0.1108,0.1109,0.1267,0,0,0,0,0,0,0.0631,0.064,0.0652,0.0679,0.0689,0.0741,0.0744,0.0752,0.0794,0.08,0.0865,0.0877,0.0896,0.098,0.0991,0.1067,0.0983,0.1105,0.1107,0.1108,0.1261,0.1274,0.1285,0,0,0,0,0,0.0628,0.0642,0.0653,0.0661,0.0704,0.0742,0.0748,0.078,0.0795,0.0819,0.0868,0.0877,0.0996,0.0985,0.0998,0.1077,0.1105,0.1107,0.1108,0.1256,0.1271,0.1284,0,0,0,0,0,0,0.0621,0.0649,0.0662,0.0687,0.0723,0.0752,0.0775,0.0797,0.0851,0.0866,0.0902,0.0918,0.1011,0.1003,0.0989,0.1109,0.1046,0.1051,0.1154,0.1168,0.118,0.1166,0.0987,0,0,0,0,0,0.0622,0.0635,0.0672,0.0695,0.0715,0.075,0.0771,0.0797,0.0842,0.0867,0.0914,0.0959,0.102,0.1063,0.1096,0.1174,0.116,0.122,0.1232,0.1243,0.1234,0.1337,0.136,0.1115,0.1115,0.1115,0,0,0.0622,0.0642,0.0649,0.0693,0.0722,0.0765,0.0767,0.0812,0.086,0.0876,0.0962,0.1007,0.1044,0.1134,0.1174,0.1149,0.1289,0.1245,0.1255,0.124,0.1342,0.1367,0.1388,0.1116,0.1116,0.1116,0,0,0.0627,0.0655,0.0667,0.0707,0.0757,0.0787,0.0809,0.0861,0.0899,0.0969,0.1009,0.1091,0.1159,0.1223,0.1258,0.1344,0.1345,0.136,0.1433,0.1536,0.1558,0.1578,0.1534,0.1549,0.1375,0.1376,0.1376,0,0.0631,0.0662,0.068,0.0718,0.076,0.0805,0.0851,0.0895,0.0969,0.103,0.1007,0.1167,0.1196,0.135,0.1376,0.1379,0.1394,0.1395,0.1559,0.1578,0.1596,0.1546,0.156,0.1383,0.1383,0.1382,0.1381,0,0.0647,0.0691,0.0711,0.0774,0.0816,0.087,0.0933,0.1008,0.1054,0.1105,0.1245,0.1288,0.1403,0.1419,0.1426,0.1588,0.1538,0.1566,0.1539,0.1631,0.157,0.1582,0.1395,0.1392,0.139,0.1388,0,0,0.0619,0.0705,0.072,0.0768,0.0859,0.09,0.1005,0.1121,0.121,0.1285,0.1395,0.1508,0.1566,0.1604,0.1653,0.1712,0.1821,0.1702,0.1703,0.168,0.1971,0.1909,0.1915,0.1926,0.1931,0.1934,0.1858,0,0.0639,0.0717,0.0757,0.0856,0.0907,0.1003,0.1099,0.1212,0.1288,0.1402,0.1498,0.1614,0.1634,0.1712,0.1796,0.1855,0.1871,0.1832,0.1861,0.1857,0.1818,0.1935,0.1948,0.1867,0.1869,0.1871,0.1873,0,0.0634,0.0703,0.0791,0.0923,0.0957,0.1028,0.1206,0.1306,0.1481,0.1545,0.1704,0.1766,0.1943,0.1881,0.2055,0.2055,0.2009,0.1985,0.1985,0.1883,0.1824,0.1764,0.1894,0.1892,0.1891,0.1889,0.1888,0,0.0595,0.072,0.0797,0.0844,0.1002,0.1086,0.1197,0.1365,0.1495,0.1666,0.176,0.195,0.2069,0.2129,0.2165,0.2139,0.2248,0.2211,0.2064,0.2052,0.2056,0.2036,0.223,0.2231,0.2231,0.2231,0.2231,0,0.0588,0.0659,0.0795,0.0851,0.0969,0.1091,0.124,0.1374,0.1589,0.1725,0.1872,0.198,0.215,0.2246,0.2212,0.2228,0.233,0.208,0.2073,0.2107,0.2096,0.206,0.2041,0.2228,0.2229,0.2229,0.223,0,0.0515,0.0615,0.0712,0.0889,0.0945,0.104,0.1281,0.1385,0.1622,0.1796,0.1882,0.2099,0.2225,0.2306,0.2355,0.2304,0.2284,0.2209,0.2182,0.2171,0.196,0.195,0.2037,0.2035,0.2033,0.2032,0.2031,0,0.0486,0.0527,0.0696,0.075,0.0831,0.0993,0.1088,0.1365,0.1472,0.1829,0.1879,0.2104,0.2194,0.2234,0.2309,0.2273,0.2214,0.2165,0.2096,0.1978,0.1962,0.1954,0.1946,0.2028,0.2028,0.2028,0.2027,0,0.0429,0.0485,0.0564,0.0665,0.0762,0.0876,0.104,0.1145,0.1453,0.1673,0.1867,0.1982,0.2078,0.215,0.2171,0.2119,0.2225,0.2147,0.2146,0.2081,0.1969,0.1952,0.1946,0.2022,0.2023,0.2023,0.2023,0,0.0373,0.0393,0.0485,0.0569,0.0663,0.0738,0.0855,0.1017,0.1219,0.1617,0.1647,0.1862,0.2039,0.2062,0.2077,0.2085,0.2004,0.191,0.192,0.1927,0.1944,0.1789,0.1799,0,0,0,0,0,0.0314,0.0331,0.0383,0.0471,0.0543,0.0622,0.0801,0.0932,0.121,0.1304,0.1519,0.16,0.1747,0.1842,0.1815,0.1959,0.1965,0.1917,0.1848,0.1992,0.1999,0.2037,0,0,0,0,0,0,0.028,0.0324,0.0349,0.0364,0.0398,0.0494,0.0612,0.0802,0.0883,0.117,0.1238,0.1481,0.16,0.1728,0.1772,0.1801,0.1722,0.2059,0.2055,0.1989,0.1994,0.1999,0.2041,0,0,0,0,0]},{"header":{"parameterUnit":"m.s-1","parameterCategory":2,"la1":30.2991,"la2":30.254,"lo1":-89.0895,"lo2":-89.0444,"dy":0.0017,"dx":0.0017,"nx":28,"ny":28,"refTime":"2025-05-29T21:00:00:Z","depth":"4","parameterNumber":3,"parameterNumberName":"V-component_of_CURRENTS"},"data":[0,0,0,0,0,0,0,0,0,0,0,0,0,0,0,0,0,0,0,0,0,0,0,0,0,0,0,0,0,0,0,0,0,0,0,0,0,0,0,0,0,0,0,0,0,0,0,0,0,0,0,0,0,0,0,0,0,0,0.0567,0.0566,0,0.0526,0.0525,0.0524,0.0511,0.0511,0.0512,0.0512,0.0454,0.0452,0.045,0,0,0,0,0,0,0,0,0,0,0,0,0,0.0559,0.0559,0.0567,0.0566,0.0566,0.0526,0.0525,0.0524,0.0511,0.0511,0.0512,0.0512,0.0455,0.0452,0.045,0,0,0,0,0,0,0,0,0,0,0,0,0,0.0543,0.0559,0.0567,0.0556,0.0554,0.0526,0.0525,0.0524,0.0511,0.0511,0.0512,0.0512,0.0455,0.0453,0.045,0.0423,0,0,0.0441,0.044,0,0,0,0,0,0,0,0,0.0544,0.0543,0.0558,0.0556,0.0555,0.0525,0.0501,0.049,0.0511,0.0526,0.0512,0.0512,0.0477,0.0472,0.0462,0.042,0.0418,0.0441,0.044,0.0438,0.0438,0,0,0,0,0,0,0,0.0545,0.0544,0.0549,0.0557,0.0556,0.0527,0.0526,0.0498,0.0497,0.0524,0.0524,0.0521,0.0476,0.0464,0.046,0.0417,0.0441,0.0439,0.0437,0.0436,0.0358,0.0357,0,0,0,0,0,0,0.0557,0.0546,0.055,0.0548,0.0552,0.0527,0.0526,0.0533,0.0498,0.0494,0.0521,0.0521,0.0469,0.0463,0.0458,0.0448,0.0438,0.0436,0.0434,0.0358,0.0358,0.0357,0,0,0,0,0,0,0.0557,0.0558,0.0552,0.0546,0.0544,0.0528,0.0535,0.0532,0.0537,0.0496,0.0491,0.0532,0.0469,0.0462,0.0451,0.0445,0.0435,0.0432,0.0359,0.0358,0.0357,0.0413,0,0,0,0,0,0,0.0557,0.0559,0.0572,0.0548,0.0545,0.0552,0.0535,0.0531,0.0534,0.0534,0.0503,0.0497,0.0469,0.0456,0.0449,0.0441,0.043,0.0359,0.0358,0.0358,0.0412,0.0414,0.0417,0,0,0,0,0,0.0557,0.0576,0.0573,0.0574,0.0563,0.0553,0.0549,0.0537,0.0535,0.0542,0.0522,0.0499,0.0445,0.0454,0.0445,0.0437,0.036,0.0359,0.0358,0.0411,0.0414,0.0416,0,0,0,0,0,0,0.0577,0.0575,0.0572,0.059,0.058,0.0552,0.0558,0.0548,0.0537,0.0539,0.0503,0.0496,0.0479,0.0451,0.0462,0.0409,0.0394,0.0391,0.0437,0.044,0.0442,0.0423,0.0428,0,0,0,0,0,0.0589,0.0605,0.0591,0.0606,0.0605,0.0584,0.0581,0.0572,0.0556,0.0552,0.0528,0.0496,0.0464,0.0451,0.042,0.0399,0.034,0.0383,0.0386,0.0388,0.0365,0.0293,0.0287,0.0354,0.0354,0.0354,0,0,0.06,0.0601,0.061,0.0611,0.0602,0.0596,0.0584,0.0586,0.0574,0.0546,0.0531,0.0509,0.0461,0.0436,0.0425,0.0416,0.0336,0.0387,0.039,0.0365,0.0292,0.0285,0.0279,0.0353,0.0354,0.0354,0,0,0.0619,0.0633,0.0646,0.0642,0.0637,0.062,0.0627,0.0608,0.0598,0.058,0.0553,0.0525,0.0486,0.0443,0.0417,0.041,0.0354,0.041,0.0406,0.0338,0.0331,0.0325,0.0236,0.0221,0.041,0.041,0.041,0,0.0629,0.0647,0.0647,0.0652,0.0647,0.0635,0.0634,0.0617,0.0596,0.0585,0.0581,0.0504,0.0474,0.0422,0.0421,0.0413,0.0365,0.0406,0.0341,0.0333,0.0326,0.0236,0.0219,0.0412,0.0412,0.0412,0.0412,0,0.065,0.0664,0.0673,0.0672,0.0665,0.0671,0.0644,0.0645,0.063,0.06,0.0558,0.0509,0.0468,0.0449,0.0432,0.037,0.035,0.0357,0.0337,0.0323,0.0229,0.021,0.0416,0.0415,0.0414,0.0414,0,0,0.067,0.0685,0.0691,0.0699,0.0681,0.0683,0.0665,0.0643,0.0641,0.0595,0.056,0.0496,0.0481,0.0447,0.0421,0.0348,0.0259,0.0338,0.0334,0.0254,0.0094,0.0122,0.0103,0.0271,0.0269,0.0266,0.0048,0,0.0686,0.0714,0.0703,0.0718,0.0726,0.0709,0.0699,0.0676,0.0644,0.061,0.0532,0.0508,0.0477,0.0481,0.0394,0.0316,0.0214,0.0316,0.0114,0.0106,0.0137,0.0084,0.0258,0.0034,0.0029,0.0026,0.0024,0,0.0695,0.0723,0.0749,0.0759,0.0761,0.077,0.0765,0.0764,0.0705,0.0673,0.061,0.0561,0.047,0.0443,0.0246,0.0325,0.0199,0.0106,0.0097,0.0085,0.0099,0.0049,-0.0011,-0.0008,-0.0005,-0.0003,-0.0001,0,0.072,0.074,0.0774,0.078,0.0794,0.0813,0.0833,0.0799,0.083,0.0744,0.0734,0.0593,0.0553,0.0385,0.0214,0.0241,-0.0038,-0.0018,-0.0145,-0.0145,-0.0127,-0.0118,-0.0218,-0.0218,-0.0217,-0.0217,-0.0216,0,0.0727,0.0758,0.0808,0.0841,0.0891,0.0884,0.0934,0.092,0.0926,0.092,0.0809,0.0743,0.0541,0.0372,0.0197,-0.0025,-0.0048,-0.0179,-0.0204,-0.0099,-0.0085,-0.0141,-0.013,-0.0225,-0.0223,-0.0221,-0.022,0,0.0724,0.0768,0.0823,0.0882,0.091,0.0963,0.1059,0.1084,0.1091,0.1073,0.1068,0.0886,0.0648,0.0414,0.0107,-0.0018,-0.0245,-0.0339,-0.0239,-0.025,-0.0314,-0.0297,-0.0491,-0.0492,-0.0493,-0.0493,-0.0494,0,0.0721,0.0754,0.0863,0.091,0.0949,0.1039,0.1089,0.1163,0.1181,0.1129,0.1094,0.0905,0.0726,0.0303,0.0062,-0.0288,-0.0335,-0.0445,-0.0372,-0.0339,-0.0345,-0.0326,-0.0309,-0.0495,-0.0495,-0.0495,-0.0496,0,0.071,0.0764,0.0809,0.0927,0.101,0.1101,0.118,0.1214,0.1244,0.1262,0.1097,0.0891,0.0586,0.0272,0.0002,-0.0249,-0.0347,-0.0454,-0.0453,-0.0386,-0.0347,-0.0347,-0.0329,-0.0498,-0.0498,-0.0498,-0.0498,0,0.0697,0.0726,0.0814,0.0902,0.1003,0.1092,0.1159,0.116,0.1228,0.1169,0.1087,0.0794,0.0634,0.0285,0.003,-0.0192,-0.0238,-0.0281,-0.0291,-0.029,-0.0142,-0.0057,-0.017,0,0,0,0,0,0.0652,0.069,0.0774,0.0873,0.0963,0.1077,0.1158,0.1212,0.1227,0.1119,0.1132,0.0842,0.0475,0.0302,0.0077,0.0012,-0.0277,-0.0253,-0.0331,-0.0514,-0.0511,-0.0365,0,0,0,0,0,0,0.0629,0.07,0.0757,0.083,0.0899,0.1043,0.1124,0.1159,0.1104,0.1067,0.0858,0.0812,0.0435,0.0593,0.0075,0.001,-0.0061,-0.0412,-0.0415,-0.0516,-0.0513,-0.051,-0.0359,0,0,0,0,0]}]]